パンスターズ彗星

C/2024 PN7 ( PanSTARRS )

English version
Home page
Updated on January 10, 2025

---------------------------------------------------------------------

・ プロフィール

発見日 2024年8月15日
発見光度 20.0等
発見者 Pan-STARRS 2 telescope (Haleakala)

・ 軌道要素

Epoch 2024 Nov. 26.0 TT = JDT 2460640.5                                         
T 2024 Dec. 6.44070 TT                                  Veres                   
q   1.5245067            (2000.0)            P               Q                  
z  +0.0148673      Peri.   74.27438     +0.26631677     -0.96357981             
 +/-0.0000127      Node   358.58188     -0.55337287     -0.13222411             
e   0.9773347      Incl.  101.21002     +0.78921090     +0.23244513             
From 232 observations 2024 Aug. 15-Nov. 27, mean residual 0".5.                 

・ 光度変化

        m1 = 15.0 + 5 logΔ + 10.0 log r

---------------------------------------------------------------------

軌道要素はM.P.E.C. 2025-A145に掲載されたものです。
光度グラフはComet for Windowsで作成したものです。

---------------------------------------------------------------------

Copyright(C) Seiichi Yoshida (comet@aerith.net). All rights reserved.